[[{"header":{"parameterUnit":"m.s-1","parameterCategory":1,"la1":30.2991,"la2":30.254,"lo1":-89.0895,"lo2":-89.0444,"dy":0.0017,"dx":0.0017,"nx":28,"ny":28,"refTime":"2025-03-20T21:00:00:Z","depth":0,"parameterNumber":2,"parameterNumberName":"U-component_of_WINDS"},"data":[0,0,0,0,0,0,0,0,0,0,0,0,0,0,0,0,0,0,0,0,0,0,0,0,0,0,0,0,0,0,0,0,0,0,0,0,0,0,0,0,0,0,0,0,0,0,0,0,0,0,0,0,0,0,0,0,0,0,4.2194,4.2195,0,4.2248,4.2249,4.2249,4.2183,4.2181,4.2178,4.2176,4.223,4.2233,4.2237,0,0,0,0,0,0,0,0,0,0,0,0,0,4.203,4.2033,4.2194,4.2195,4.2196,4.2248,4.2249,4.2249,4.2183,4.2181,4.2178,4.2175,4.2228,4.2233,4.2237,0,0,0,0,0,0,0,0,0,0,0,0,0,4.2094,4.2035,4.2194,4.2169,4.2167,4.2248,4.2249,4.225,4.2184,4.218,4.2177,4.2173,4.2227,4.2232,4.2238,4.2345,0,0,4.2255,4.2257,0,0,0,0,0,0,0,0,4.2091,4.21,4.2172,4.2171,4.2169,4.2205,4.221,4.2282,4.2185,4.2178,4.2176,4.2172,4.2224,4.223,4.2248,4.2348,4.235,4.2255,4.2259,4.2261,4.2263,0,0,0,0,0,0,0,4.2086,4.2098,4.2215,4.2173,4.2171,4.2154,4.2159,4.2224,4.2221,4.2178,4.2173,4.2181,4.2223,4.2243,4.2249,4.2351,4.2255,4.226,4.2264,4.2266,4.2535,4.2539,0,0,0,0,0,0,4.2085,4.2095,4.2214,4.2217,4.212,4.216,4.2165,4.2197,4.222,4.222,4.2184,4.2177,4.2235,4.2242,4.225,4.2373,4.2261,4.2266,4.2269,4.2531,4.2536,4.254,0,0,0,0,0,0,4.2082,4.2097,4.2211,4.2155,4.2168,4.2166,4.2203,4.22,4.222,4.2224,4.2223,4.2205,4.2233,4.2243,4.2321,4.2374,4.2269,4.2274,4.2527,4.2533,4.2538,4.2621,0,0,0,0,0,0,4.2078,4.2096,4.2138,4.2156,4.2171,4.2283,4.2206,4.2204,4.223,4.2222,4.2244,4.2244,4.223,4.2313,4.2326,4.2379,4.2278,4.2522,4.2529,4.2536,4.2614,4.2629,4.2642,0,0,0,0,0,4.2072,4.216,4.214,4.2155,4.2224,4.2286,4.2294,4.2277,4.2235,4.2275,4.2277,4.2243,4.2367,4.2322,4.2336,4.2392,4.2518,4.2527,4.2536,4.2607,4.2626,4.2642,0,0,0,0,0,0,4.2149,4.2162,4.214,4.2237,4.2261,4.2275,4.2326,4.2299,4.2335,4.2326,4.2303,4.2309,4.2391,4.24,4.2349,4.2494,4.2435,4.2447,4.2485,4.2503,4.2517,4.2511,4.2283,0,0,0,0,0,4.2177,4.2227,4.2236,4.2321,4.2334,4.2328,4.2355,4.2339,4.2362,4.2372,4.238,4.2403,4.2446,4.2476,4.2517,4.2616,4.2617,4.2661,4.2675,4.2687,4.2696,4.2744,4.2762,4.2568,4.2568,4.2568,0,0,4.2236,4.2249,4.2283,4.2336,4.2353,4.2403,4.2337,4.2394,4.243,4.2381,4.2453,4.246,4.2484,4.2572,4.2611,4.2582,4.275,4.2698,4.2707,4.271,4.2755,4.2773,4.2789,4.2574,4.2573,4.2572,0,0,4.2367,4.2385,4.2454,4.2472,4.2497,4.2492,4.2509,4.2526,4.2528,4.2601,4.2563,4.2606,4.2683,4.27,4.2719,4.2853,4.2821,4.2867,4.2941,4.2987,4.3002,4.3016,4.3059,4.3075,4.2878,4.2878,4.2878,0,4.2437,4.2512,4.2494,4.2552,4.2574,4.2532,4.26,4.2618,4.2655,4.2671,4.2638,4.273,4.2744,4.2832,4.2864,4.2883,4.2898,4.2863,4.3002,4.3015,4.3027,4.3068,4.3085,4.2883,4.2882,4.2882,4.2881,0,4.2593,4.2646,4.2699,4.2734,4.2763,4.2827,4.2815,4.2847,4.2829,4.2827,4.2899,4.2914,4.2954,4.2975,4.2959,4.306,4.304,4.3006,4.2945,4.3051,4.3088,4.3104,4.289,4.2888,4.2887,4.2885,0,0,4.2774,4.2796,4.2816,4.2829,4.2852,4.2891,4.2952,4.2991,4.3016,4.3043,4.309,4.3154,4.3121,4.3142,4.3127,4.3169,4.3268,4.3128,4.3128,4.3149,4.3374,4.3397,4.3415,4.3248,4.3251,4.3254,4.337,0,4.2902,4.3005,4.2988,4.3087,4.3132,4.3091,4.3142,4.3161,4.3161,4.3198,4.3197,4.3241,4.3196,4.3208,4.3248,4.3248,4.3312,4.324,4.3288,4.329,4.3279,4.3436,4.3461,4.357,4.3385,4.3388,4.339,0,4.3064,4.3094,4.3197,4.3209,4.3227,4.3274,4.3305,4.3343,4.3362,4.3358,4.3381,4.3358,4.3414,4.3356,4.3432,4.3383,4.3402,4.3405,4.3409,4.3409,4.3343,4.3436,4.3605,4.362,4.3414,4.3412,4.341,0,4.3178,4.3246,4.3314,4.3328,4.3345,4.3377,4.3386,4.3402,4.3425,4.3453,4.3467,4.3502,4.352,4.3547,4.3532,4.3493,4.3609,4.3551,4.3604,4.3605,4.3628,4.3626,4.3798,4.3648,4.3648,4.3648,4.3648,0,4.3319,4.3383,4.3365,4.3407,4.3475,4.3456,4.3523,4.3527,4.3541,4.3581,4.3549,4.3587,4.3568,4.3604,4.3594,4.3655,4.3665,4.3661,4.3657,4.3662,4.3661,4.3671,4.3661,4.3652,4.3651,4.365,4.365,0,4.3458,4.3449,4.352,4.353,4.3533,4.3583,4.359,4.3628,4.3624,4.3675,4.3686,4.368,4.372,4.371,4.3755,4.3747,4.3823,4.3812,4.3816,4.3811,4.3863,4.3857,4.4044,4.4065,4.3907,4.3908,4.391,0,4.3546,4.3593,4.3606,4.363,4.3641,4.3681,4.3703,4.3685,4.371,4.3733,4.3767,4.3805,4.3833,4.39,4.3899,4.3932,4.3918,4.3981,4.3922,4.3924,4.3912,4.3907,4.391,4.3991,4.3993,4.3995,4.3996,0,4.3701,4.3694,4.3727,4.3759,4.3786,4.381,4.3831,4.3853,4.3835,4.3864,4.3905,4.3927,4.3971,4.4007,4.4037,4.4044,4.4016,4.4015,4.4028,4.4031,4.4029,4.4025,4.3842,4.401,4.4008,4.4007,4.4006,4.4006,4.3814,4.3851,4.3865,4.3902,4.3916,4.3935,4.3969,4.3969,4.4003,4.4036,4.4024,4.4069,4.4084,4.412,4.4131,4.4165,4.4141,4.4161,4.4165,4.4169,4.4173,4.4027,4.4171,4.4171,4.417,4.417,4.417,0,4.3963,4.3969,4.4003,4.4032,4.4061,4.4033,4.4054,4.4079,4.4118,4.4135,4.4163,4.4207,4.4241,4.4242,4.4274,4.43,4.4288,4.4309,4.4304,4.4305,4.4196,4.4179,4.4318,4.4318,4.4318,4.4318,4.4318,4.4318,4.4043,4.4103,4.4097,4.4163,4.4169,4.4212,4.4225,4.4242,4.4254,4.4305,4.4332,4.4333,4.4342,4.4373,4.4402,4.4402,4.4413,4.4437,4.4431,4.4328,4.4314,4.4299,4.4283,4.4441,4.4441,4.4537,4.4538,4.4538]},{"header":{"parameterUnit":"m.s-1","parameterCategory":1,"la1":30.2991,"la2":30.254,"lo1":-89.0895,"lo2":-89.0444,"dy":0.0017,"dx":0.0017,"nx":28,"ny":28,"refTime":"2025-03-20T21:00:00:Z","depth":0,"parameterNumber":3,"parameterNumberName":"V-component_of_WINDS"},"data":[0,0,0,0,0,0,0,0,0,0,0,0,0,0,0,0,0,0,0,0,0,0,0,0,0,0,0,0,0,0,0,0,0,0,0,0,0,0,0,0,0,0,0,0,0,0,0,0,0,0,0,0,0,0,0,0,0,0,4.1721,4.1723,0,4.1849,4.1851,4.1852,4.183,4.1828,4.1826,4.1824,4.1953,4.1959,4.1964,0,0,0,0,0,0,0,0,0,0,0,0,0,4.1453,4.1458,4.1721,4.1723,4.1724,4.1849,4.1851,4.1853,4.1831,4.1828,4.1825,4.1823,4.1951,4.1958,4.1965,0,0,0,0,0,0,0,0,0,0,0,0,0,4.1574,4.146,4.1721,4.1728,4.173,4.1849,4.1851,4.1853,4.1831,4.1828,4.1825,4.1821,4.1949,4.1957,4.1966,4.2084,0,0,4.1991,4.1994,0,0,0,0,0,0,0,0,4.1567,4.1584,4.1726,4.1728,4.173,4.182,4.1804,4.193,4.1832,4.1793,4.1824,4.182,4.1912,4.1923,4.1954,4.209,4.2095,4.1992,4.1997,4.2,4.2003,0,0,0,0,0,0,0,4.1559,4.1578,4.1772,4.1728,4.1731,4.1724,4.1737,4.1828,4.1869,4.1796,4.1795,4.181,4.1912,4.1946,4.1957,4.2097,4.1991,4.1999,4.2004,4.2007,4.2331,4.2335,0,0,0,0,0,0,4.1549,4.1571,4.1768,4.1776,4.1639,4.1731,4.1747,4.1795,4.1868,4.1876,4.1813,4.1809,4.1934,4.1947,4.1962,4.2102,4.2,4.2008,4.2013,4.2328,4.2332,4.2336,0,0,0,0,0,0,4.1543,4.1566,4.1762,4.1673,4.1698,4.174,4.1794,4.1799,4.1833,4.1881,4.1888,4.184,4.1932,4.195,4.2053,4.2106,4.2012,4.2019,4.2323,4.2329,4.2334,4.2385,0,0,0,0,0,0,4.1535,4.1564,4.1611,4.1674,4.1702,4.1853,4.1797,4.1804,4.1848,4.1843,4.1909,4.1916,4.193,4.204,4.2061,4.2116,4.2026,4.2319,4.2326,4.2332,4.2379,4.2391,4.2402,0,0,0,0,0,4.1526,4.1621,4.1614,4.1638,4.1762,4.1856,4.1872,4.1887,4.1852,4.1898,4.1928,4.1914,4.2097,4.2051,4.2074,4.2132,4.2316,4.2324,4.2332,4.2373,4.2389,4.2402,0,0,0,0,0,0,4.1564,4.163,4.1622,4.1741,4.1793,4.1852,4.1912,4.1904,4.1966,4.196,4.1975,4.1989,4.2093,4.2123,4.2071,4.2248,4.2201,4.2214,4.2225,4.224,4.2252,4.2242,4.2033,0,0,0,0,0,4.1586,4.1658,4.1711,4.1811,4.1837,4.187,4.1912,4.1918,4.1972,4.1994,4.2032,4.2085,4.2153,4.2198,4.2265,4.2383,4.2395,4.2434,4.2445,4.2455,4.2466,4.2526,4.2543,4.2363,4.2363,4.2363,0,0,4.1633,4.1677,4.1722,4.1819,4.1861,4.1933,4.1889,4.1968,4.2021,4.2006,4.2105,4.2134,4.2193,4.2303,4.2353,4.2331,4.2518,4.2465,4.2473,4.2478,4.2536,4.2553,4.2569,4.2368,4.2367,4.2367,0,0,4.1754,4.1796,4.1882,4.1923,4.1986,4.2006,4.2026,4.2086,4.2105,4.2204,4.2193,4.2256,4.2375,4.2416,4.2453,4.2585,4.2573,4.2607,4.2668,4.2727,4.2741,4.2754,4.2798,4.2814,4.2617,4.2618,4.2618,0,4.1804,4.1914,4.1927,4.2007,4.2048,4.2037,4.2122,4.2162,4.2242,4.227,4.2244,4.2391,4.243,4.2548,4.2579,4.2611,4.2632,4.2599,4.2738,4.2751,4.2763,4.2805,4.2822,4.2621,4.2621,4.262,4.262,0,4.197,4.2046,4.2107,4.2184,4.2233,4.2315,4.2339,4.2386,4.2387,4.241,4.2508,4.2555,4.2628,4.2657,4.266,4.2774,4.2757,4.2735,4.2688,4.2783,4.2823,4.284,4.2626,4.2625,4.2624,4.2623,0,0,4.2121,4.2202,4.2224,4.2257,4.2323,4.2381,4.2461,4.2533,4.2571,4.2626,4.2692,4.2791,4.2769,4.2811,4.2817,4.2869,4.2967,4.284,4.2841,4.286,4.3091,4.3106,4.3125,4.2959,4.2963,4.2965,4.3085,0,4.2247,4.2389,4.2401,4.2528,4.2595,4.2584,4.2653,4.2699,4.2722,4.2781,4.2805,4.2874,4.2842,4.2866,4.2917,4.2944,4.3013,4.2936,4.3018,4.3021,4.3002,4.3147,4.3164,4.3275,4.3101,4.3104,4.3106,0,4.2413,4.2472,4.2605,4.2657,4.2686,4.2748,4.2812,4.287,4.2922,4.2934,4.2978,4.2977,4.3056,4.3006,4.3114,4.3061,4.3095,4.3113,4.3117,4.3125,4.3068,4.3156,4.3312,4.3328,4.3131,4.3129,4.3127,0,4.2506,4.2618,4.2711,4.274,4.2805,4.2848,4.2877,4.2925,4.2965,4.3021,4.3047,4.3112,4.3147,4.3195,4.321,4.3173,4.3316,4.3269,4.3326,4.3326,4.3357,4.3354,4.3518,4.3382,4.3381,4.3381,4.3381,0,4.2645,4.2726,4.2753,4.2811,4.29,4.2912,4.3,4.3026,4.3068,4.3128,4.3122,4.3178,4.3195,4.3254,4.3266,4.3351,4.3368,4.3378,4.338,4.3378,4.3376,4.3399,4.3391,4.3386,4.3385,4.3384,4.3383,0,4.2764,4.2786,4.2886,4.2938,4.2952,4.3016,4.3059,4.3113,4.3132,4.3208,4.3227,4.3258,4.3326,4.3345,4.3428,4.3436,4.3535,4.3531,4.3518,4.3517,4.3573,4.3566,4.3756,4.3781,4.363,4.3631,4.3632,0,4.285,4.2912,4.2969,4.3009,4.3039,4.3104,4.3144,4.3158,4.32,4.3261,4.3306,4.3373,4.3428,4.3537,4.3566,4.3627,4.3623,4.3686,4.3633,4.3627,4.3621,4.3617,4.3621,4.3695,4.3697,4.3698,4.3699,0,4.3,4.3006,4.3066,4.3128,4.3177,4.3227,4.3275,4.3307,4.3327,4.3374,4.3444,4.3486,4.3568,4.3634,4.3696,4.3723,4.3714,4.3716,4.3732,4.3729,4.3718,4.3722,4.3543,4.3711,4.371,4.3709,4.3708,4.3708,4.3104,4.3156,4.3204,4.3269,4.3306,4.3349,4.3401,4.3426,4.3484,4.3553,4.3556,4.3631,4.3676,4.3758,4.3789,4.3845,4.3827,4.3851,4.3857,4.3862,4.3866,4.371,4.3857,4.3857,4.3857,4.3856,4.3856,0,4.325,4.3279,4.3339,4.3405,4.3455,4.3442,4.3493,4.3535,4.3601,4.3645,4.3697,4.3775,4.3837,4.387,4.3931,4.397,4.3967,4.3986,4.3982,4.3988,4.388,4.3859,4.3987,4.3987,4.3987,4.3987,4.3987,4.3987,4.3332,4.342,4.3431,4.3535,4.3564,4.3636,4.3666,4.3705,4.374,4.3826,4.3878,4.3899,4.3937,4.4,4.4056,4.4064,4.4086,4.4106,4.4111,4.401,4.3996,4.3983,4.3963,4.4112,4.4112,4.4214,4.4215,4.4216]}]]